Regional Weather Roundup
Issued by NWS Newport/Morehead, NC

Current Version | Previous Version | Graphics & Text | Print | Product List | Glossary Off
Versions: 1 2 3 4 5 6 7 8 9 10 11 12 13 14 15 16 17 18 19 20 21 22 23 24 25 26 27 28 29 30 31 32 33 34 35 36 37 38 39 40 41 42 43 44 45 46 47 48 49 50

000
ASUS42 KMHX 031726
RWRMHX
WEATHER ROUNDUP FOR EASTERN NORTH CAROLINA
NATIONAL WEATHER SERVICE NEWPORT/MOREHEAD CITY NC
100 PM EDT THU SEP 03 2015

NOTE: "FAIR" INDICATES FEW OR NO CLOUDS BELOW 12,000 FEET
WITH NO SIGNIFICANT WEATHER AND/OR OBSTRUCTIONS TO VISIBILITY

NCZ015>017-031-032-045>047-102-103-031800-
NORTH COAST

CITY           SKY/WX    TMP DP  RH WIND       PRES   REMARKS
EDENTON        SUNNY     81  71  71 SW3       29.93F
ELIZABETH CITY SUNNY     86  70  58 NE5       29.92F
KITTY HAWK     SUNNY     87  70  57 CALM      29.92F
MANTEO         SUNNY     83  67  59 NW3       29.94F

$$

NCZ045>047-081-094-103-104-031800-
CENTRAL COAST

CITY           SKY/WX    TMP DP  RH WIND       PRES   REMARKS
FRISCO         SUNNY     80  71  74 W6        29.94F
SWANQUARTER      N/A     82 N/A N/A W6G13     29.88F

$$

NCZ095-097-098-100-101-031800-
SOUTHERN COAST

CITY           SKY/WX    TMP DP  RH WIND       PRES   REMARKS
BEAUFORT       SUNNY     82  74  76 SW7       29.94F
CEDAR ISLAND     N/A     82 N/A N/A VRB6      29.97S
JACKSONVILLE   MOSUNNY   85  71  63 VRB3      29.93F
PINEY ISLAND   SUNNY    N/A N/A N/A W5        29.93F
WILMINGTON     MOSUNNY   89  72  56 VRB7      29.93F


$$

NCZ011>013-027>030-043-044-078>080-089-090>093-098-031800-
COASTAL PLAIN

CITY           SKY/WX    TMP DP  RH WIND       PRES   REMARKS
AHOSKIE        SUNNY     84  71  64 CALM      29.93F
CLINTON        MOSUNNY   88  72  59 W3        29.94F
ELIZABETHTOWN  MOSUNNY   88  71  58 NW5       29.94F
GOLDSBORO      MOSUNNY   85  71  61 NW6       29.93F
GREENVILLE     MOSUNNY   82  72  69 CALM      29.96F
HAVELOCK       MOSUNNY   87  71  58 MISG      29.94F
KENANSVILLE      N/A     84  70  62 NE3       29.95F
KINSTON        MOSUNNY   84  72  65 CALM      29.95F
NEW BERN       MOSUNNY   86  70  58 CALM      29.94F
RICHLANDS      MOSUNNY   84  70  61 NW5       29.94S
ROCKY MOUNT    MOSUNNY   85  69  58 N5        29.95F
WASHINGTON     SUNNY     82  71  70 CALM      29.94F
WHITEVILLE     MOSUNNY   89  73  60 CALM      29.93F

$$

AMZ130-135-150-152-154-156-158-170-250-252-270-ANZ085-086-088-633-658-670-031800-
MARINE OBSERVATIONS

STATION/POSITION TIME  TEMP    WIND        PRES    WAVE   SWELL
                       AIR SEA DIR/SP/G            HT/PER HT/PER
                 (UTC) (F)     (DEG/KT/KT) (MB)    (FT/S) (FT/S)
CHESAPEAKE LIGHT 1700   80     280/  4/  5 1013.7
64 E VA BEACH    1650   79 79  290/  8/  8 1012.7    2/ 4   2/ 9
DUCK             1700   84 80   80/  2/  3 1012.5
2 E DUCK         1611      81                N/A     2/13
OREGON INLET     1700   83 82  300/  3/  6 1013.6
13E OREGON INLT  1700      80                N/A     2/13
HATTERAS CG      1700   78 82  280/  3/  5 1013.8
DIAMOND BUOY     1650   81 86  340/  4/  6 1013.9    1/10   2/10
CAPE LOOKOUT     1700   80     120/  3/  4 1013.6
BEAUFORT LAB     1700   80 81  190/  7/  7 1013.1
30 SE NEW RVR IN 1608   81 82  140/  4/  4 1014.6
30 SE NEW RVR IN 1625      83                N/A     2/ 7
27 SE WRIGHTSVLE 1700   79 82  220/  4/  4   N/A
5 SE WRIGHTSVLE  1608   82 82  180/  4/  8 1014.1
225 S CAPE HAT   1650   84 85  280/  6/  6 1014.1    2/12   2/12
41 SE CHARLESTON 1650   80 84  220/  8/  8 1014.1    2/ 7   2/ 7

$$



USA.gov is the U.S. government's official web portal to all federal, state and local government web resources and services.